Flag Weather past 2 weeks in Mountain View, California, U.S.A.

Now
53 °F

Sunny.


Feels Like: 53 °F
Forecast: 44 / 64 °F
Wind: No wind

Location: Moffett Field

Current Time: Nov 24, 2014 at 9:56:37 AM

Latest Report: Nov 24, 2014 at 8:56 AM


Visibility: 10 mi

Pressure: 30.42 "Hg

Humidity: 80%

Dew point: 47 °F

Location of Mountain ViewLocation

Historic Weather in Mountain View — Graph

°F

Mountain View temperature yesterday

Maximum temperature yesterday: 65 °F (at 1:56 PM)
Minimum temperature yesterday: 46 °F (at 6:56 AM)
Average temperature yesterday: 55 °F

Past Weeks' High & Low Weather Summary

 TemperatureHumidityPressure
High74 °F (Nov 9, 1:56 PM)100% (Nov 10, 3:56 AM)30.40 "Hg (Nov 10, 3:56 AM)
Low44 °F (Nov 24, 3:56 AM)15% (Nov 16, 10:56 AM)29.80 "Hg (Nov 10, 1:56 PM)
Average58 °F74%30.09 "Hg
* Reported Nov 9 8:03 AM — Nov 24 7:56 AM, Mountain View, Weather by CustomWeather, © 2014

Note: Actual official high and low records may vary slightly from our data, if they occured in-between our weather recording intervals... More about our weather records

Advertising

Mountain View weather history for previous 24 hours

 ConditionsComfort  
Time TempWeatherWind HumidityBarometerVisibility
7:56 AM
Nov 24
52 °FSunny.No wind77%30.40 "Hg10 mi
6:56 AM50 °FSunny.7 mph74%30.38 "Hg10 mi
5:56 AM46 °FClear.No wind77%30.37 "Hg10 mi
4:56 AM45 °FClear.5 mph82%30.35 "Hg10 mi
3:56 AM44 °FClear.No wind89%30.34 "Hg10 mi
2:56 AM45 °FClear.No wind90%30.34 "Hg10 mi
1:56 AM46 °FClear.3 mph86%30.34 "Hg10 mi
12:56 AM47 °FClear.No wind86%30.34 "Hg10 mi
11:56 PM
Nov 23
47 °FClear.No wind86%30.34 "Hg10 mi
10:56 PM49 °FClear.No wind80%30.34 "Hg10 mi
9:56 PM51 °FClear.No wind80%30.33 "Hg10 mi
8:56 PM52 °FClear.No wind72%30.32 "Hg10 mi
7:56 PM54 °FClear.No wind67%30.31 "Hg10 mi
6:56 PM56 °FClear.3 mph62%30.30 "Hg10 mi
5:56 PM59 °FClear.5 mph54%30.29 "Hg10 mi
4:56 PM61 °FClear.7 mph50%30.28 "Hg10 mi
3:56 PM64 °FSunny.8 mph41%30.28 "Hg10 mi
2:56 PM65 °FSunny.5 mph37%30.28 "Hg10 mi
1:56 PM65 °FSunny.5 mph37%30.29 "Hg10 mi
12:56 PM64 °FSunny.No wind40%30.31 "Hg10 mi
11:56 AM63 °FSunny.6 mph43%30.32 "Hg10 mi
10:56 AM62 °FSunny.6 mph44%30.34 "Hg10 mi
9:56 AM59 °FSunny.7 mph58%30.35 "Hg10 mi
Weather by CustomWeather, © 2014

See weather overviewHow to use our weather pages